Home > Weather > Istanbul > Past weeks

Flag for Turkey Weather for the Past 2 Weeks in Istanbul, Turkey

Now
55 °F

Passing clouds.


Feels Like: 52 °F
Forecast: 54 / 67 °F
Wind: 14 mph from Northeast

Location: Istanbul Ataturk Airport

Current Time: May 2, 2016 at 1:02:12 AM

Latest Report: May 1, 2016 at 11:50 PM


Visibility: N/A

Pressure: 30.01 "Hg

Humidity: 77%

Dew Point: 48 °F

Location of IstanbulLocation

Historic Weather in Istanbul — Graph

°F

Istanbul Temperature Yesterday

Maximum temperature yesterday: 63 °F (at 3:20 PM)
Minimum temperature yesterday: 54 °F (at 6:20 AM)
Average temperature yesterday: 58 °F

High & Low Weather Summary for the Past Weeks

 TemperatureHumidityPressure
High79 °F (Apr 20, 12:20 PM)88% (Apr 25, 1:50 AM)30.33 "Hg (Apr 25, 1:50 AM)
Low48 °F (Apr 22, 6:50 AM)19% (Apr 21, 6:20 PM)29.47 "Hg (Apr 24, 5:50 PM)
Average62 °F58%29.95 "Hg
* Reported Apr 16 11:20 PM — May 1 11:50 PM, Istanbul, Weather by CustomWeather, © 2016

Note: Actual official high and low records may vary slightly from our data, if they occured in-between our weather recording intervals... More about our weather records

Advertising

Istanbul Weather History for the Previous 24 Hours

Scroll right to see more
 ConditionsComfort  
Time TempWeatherWind HumidityBarometerVisibility
11:50 PM
Sun, May 1
55 °FPassing clouds.14 mph77%30.01 "HgN/A
11:20 PM55 °FPassing clouds.14 mph77%30.01 "HgN/A
10:50 PM55 °FPassing clouds.14 mph77%30.04 "HgN/A
10:20 PM55 °FPassing clouds.14 mph77%30.04 "HgN/A
9:50 PM55 °FPassing clouds.15 mph72%30.04 "HgN/A
9:20 PM57 °FPassing clouds.15 mph72%30.04 "HgN/A
8:50 PM57 °FScattered clouds.13 mph72%30.04 "HgN/A
8:20 PM57 °FScattered clouds.15 mph72%30.04 "HgN/A
7:50 PM59 °FScattered clouds.16 mph63%30.04 "HgN/A
7:20 PM59 °FPassing clouds.17 mph63%30.04 "HgN/A
6:50 PM61 °FPassing clouds.17 mph59%30.04 "HgN/A
6:20 PM63 °FPassing clouds.16 mph56%30.04 "HgN/A
5:50 PM61 °FPassing clouds.21 mph55%30.04 "HgN/A
5:20 PM63 °FPassing clouds.20 mph52%30.04 "HgN/A
4:50 PM63 °FScattered clouds.16 mph56%30.04 "HgN/A
4:20 PM63 °FScattered clouds.17 mph56%30.04 "HgN/A
3:50 PM63 °FScattered clouds.15 mph56%30.04 "HgN/A
3:20 PM63 °FScattered clouds.18 mph56%30.04 "HgN/A
2:50 PM61 °FPartly sunny.15 mph63%30.07 "HgN/A
2:20 PM59 °FPartly sunny.13 mph63%30.07 "HgN/A
1:50 PM61 °FPartly sunny.13 mph59%30.07 "HgN/A
1:20 PM59 °FPartly sunny.13 mph63%30.07 "HgN/A
12:50 PM59 °FPartly sunny.14 mph63%30.07 "HgN/A
12:20 PM59 °FPartly sunny.13 mph63%30.09 "HgN/A
11:50 AM59 °FPartly sunny.14 mph63%30.09 "HgN/A
11:20 AM61 °FPartly sunny.16 mph59%30.09 "HgN/A
10:50 AM61 °FPartly sunny.16 mph59%30.09 "HgN/A
9:50 AM59 °FScattered clouds.13 mph63%30.09 "HgN/A
9:20 AM57 °FScattered clouds.13 mph67%30.09 "HgN/A
8:50 AM57 °FScattered clouds.12 mph67%30.07 "HgN/A
8:20 AM57 °FPassing clouds.12 mph67%30.07 "HgN/A
7:20 AM55 °FSunny.10 mph72%30.07 "Hg10 mi
6:50 AM55 °FPassing clouds.12 mph72%30.07 "HgN/A
6:20 AM54 °FPassing clouds.10 mph77%30.07 "HgN/A
5:20 AM55 °FPassing clouds.12 mph72%30.07 "HgN/A
4:50 AM55 °FPassing clouds.10 mph72%30.07 "HgN/A
4:20 AM55 °FPassing clouds.10 mph72%30.07 "HgN/A
3:50 AM55 °FPassing clouds.10 mph72%30.07 "HgN/A
3:20 AM55 °FPassing clouds.9 mph72%30.07 "HgN/A
2:50 AM55 °FPassing clouds.9 mph72%30.07 "HgN/A
2:20 AM55 °FPassing clouds.10 mph72%30.07 "HgN/A
1:50 AM57 °FPassing clouds.12 mph67%30.07 "HgN/A
1:20 AM55 °FClear.9 mph72%30.07 "Hg10 mi
Weather by CustomWeather, © 2016

See weather overviewHow to use our weather pages